Preview of NWS' New Version of Forecast
This preview is not operational and should not be used for support decisions.

Regional Weather Roundup (RWR)

Issued by National Weather Service (NWS)

                            
000
ASUS43 KMKX 220320
RWRWI 

WISCONSIN REGIONAL WEATHER ROUNDUP
NATIONAL WEATHER SERVICE MILWAUKEE/SULLIVAN WI
1000 PM CDT SUN APR 21 2019

NOTE: "FAIR" INDICATES FEW OR NO CLOUDS BELOW 12,000 FEET WITH NO
SIGNIFICANT WEATHER AND/OR OBSTRUCTIONS TO VISIBILITY.

WIZ001-002-006>008-014>016-023>028-220400-
NORTHWEST WISCONSIN
  
CITY           SKY/WX    TMP DP  RH WIND       PRES   REMARKS
SUPERIOR ARPT  CLOUDY    37  36  96 E12G21    30.10F WCI  29          
ASHLAND        RAIN      38  38 100 NE10      30.12R FOG     WCI  31  
HAYWARD        TSTM      41  39  93 N13       30.05R FOG              
SIREN          CLOUDY    42  39  89 NE15G22     N/A                   
CUMBERLAND     CLOUDY    45  37  76 NE18G24   29.97R                  
RICE LAKE      CLOUDY    48  42  80 N18       29.97R THUNDER          
CHETEK         CLOUDY    51  41  69 NE10G17   29.94R                  
LADYSMITH      FAIR      47  37  67 NE12G23   29.98R                  
EAU CLAIRE     FAIR      58  39  49 NE9       29.87R                  
MENOMONIE      FAIR      54  36  51 N8        29.91R                  
NEW RICHMOND   FAIR      48  39  70 NE16G22   29.94R                  
OSCEOLA        FAIR      49  41  75 NE13G22   29.98R                  
$$
 
WIZ003>005-009-010-017-018-220400-
NORTH CENTRAL WISCONSIN
  
CITY           SKY/WX    TMP DP  RH WIND       PRES   REMARKS
MANITOWISH WTR MOCLDY    38  38 100 NE13G18   30.05S WCI  30          
ARBOR VITAE    RAIN      44  35  70 NE10G18   30.03F                  
WOODRUFF       RAIN      44  35  70 NE10G18   30.03F                  
RHINELANDER    MOCLDY    49  30  48 NE12G20   30.03R                  
EAGLE RIVER    LGT RAIN  41  34  75 N9G17     30.06R                  
LAND O LAKES   TSTM      39  37  93 NE9       30.08R WCI  33          
PHILLIPS       CLOUDY    44  32  62 E15G26    29.99S                  
TOMAHAWK       MOCLDY    49  33  54 NE7       30.00R                  
MEDFORD        FAIR      51  36  55 NE13      29.93R                  
MERRILL        FAIR      52  37  56 NE10      29.98R                  
$$
 
WIZ029-030-035-036-043>047-220400-
CENTRAL WISCONSIN
  
CITY           SKY/WX    TMP DP  RH WIND       PRES   REMARKS
WAUSAU         NOT AVBL                                               
MOSINEE        FAIR      54  37  54 E10       29.94R                  
MARSHFIELD     FAIR      66  47  50 SE7       29.88S                  
STEVENS POINT  FAIR      56  41  56 E8        29.93F                  
WAUPACA        FAIR      56  42  57 NE5       29.95F                  
WAUTOMA        FAIR      66  45  46 SE8       29.92S                  
WISC RAPIDS    FAIR      69  42  37 SE7       29.91R                  
CAMP DOUGLAS   FAIR      69  46  43 SE6       29.90R                  
$$
 
WIZ011>013-019>022-031-037>040-048>050-220400-
NORTHEAST WISCONSIN
  
CITY           SKY/WX    TMP DP  RH WIND       PRES   REMARKS
ANTIGO         FAIR      49  39  67 NE13      29.99R                  
SHAWANO        FAIR      53  39  60 NE9       29.99R                  
OCONTO         FAIR      49  32  51 E9G16     29.99F                  
STURGEON BAY   FAIR      46  32  58 E9        30.02F                  
GREEN BAY      FAIR      52  41  66 N6        29.97S                  
MANITOWOC      LGT RAIN  54  34  46 S10       30.01S                  
APPLETON       PTCLDY    61  34  36 SE7       29.95R                  
CLINTONVILLE   FAIR      52  36  54 NE8       29.97S                  
OSHKOSH        FAIR      63  43  48 SE9       29.95R                  
$$
 
WIZ032>034-041-042-053>061-220400-
SOUTHWEST WISCONSIN
  
CITY           SKY/WX    TMP DP  RH WIND       PRES   REMARKS
LA CROSSE      FAIR      74  44  34 S12       29.85R                  
SPARTA         FAIR      74  44  33 S12G18    29.89S                  
VIROQUA        FAIR      70  46  41 S10       29.92R                  
BOSCOBEL       FAIR      75  45  34 S8        29.92R                  
PRAIRIE DU CHI FAIR      73  41  31 SE9G17    29.90R                  
PLATTEVILLE    FAIR      66  47  49 SE12      29.95R                  
$$

WIZ056-057-062-063-064-067-068-220400-
SOUTH CENTRAL WISCONSIN
  
CITY           SKY/WX    TMP DP  RH WIND       PRES   REMARKS
REEDSBURG      FAIR      70  44  39 S8        29.93R                  
BARABOO/DELLS  FAIR      69  40  35 S12       29.94R                  
LONE ROCK      FAIR      71  44  37 S6        29.93R                  
MINERAL POINT  FAIR      68  45  42 S10       29.95R                  
MADISON        MOCLDY    69  42  37 S13       29.96R                  
MIDDLETON      FAIR      71  40  32 S10       29.96R                  
WATERTOWN      FAIR      66  43  43 S7        29.98S                  
MONROE         FAIR      66  41  40 MISG      29.97S                  
JANESVILLE     FAIR      66  39  37 S9        29.99S                  
$$
 
WIZ051-052-058>065-066-070>072-220400-
SOUTHEAST WISCONSIN
  
CITY           SKY/WX    TMP DP  RH WIND       PRES   REMARKS
MILWAUKEE      MOCLDY    60  35  39 S7        30.02R                  
WAUKESHA       FAIR      61  36  39 SE5       30.02R                  
MILWAUKEE/TIMM FAIR      61  32  33 S6        30.02S                  
RACINE         FAIR      54  37  52 S8        30.05R                  
KENOSHA        FAIR      61  39  44 S6        30.03R                  
FOND DU LAC    FAIR      64  42  44 SE13      29.96S                  
SHEBOYGAN      FAIR      58  35  42 S14       30.00R                  
WEST BEND      MOCLDY    61  34  36 CALM      30.00S                  
JUNEAU         FAIR      66  42  41 S15       29.98R                  
$$

LSZ147-162-220400-
LAKE SUPERIOR
  
STATION/POSITION TIME  TEMP    WIND        PRES    WAVE
                       AIR SEA DIR/SP/G            HT/PER
                 (UTC) (F)     (DEG/KT/KT) (MB)    (FT/S)
$$
 
LMZ867-665-643>646-220400-
LAKE MICHIGAN
  
STATION/POSITION TIME  TEMP    WIND        PRES    WAVE
                       AIR SEA DIR/SP/G            HT/PER
                 (UTC) (F)     (DEG/KT/KT) (MB)    (FT/S)
NORTHPORT PIER   0240   41     120/  2/  4 1017.6S
KEWAUNEE LAKESHO 0254   43      50/  4/  7 1015.7R
SHEBOYGAN LAKESH 0300   47     180/ 13/ 14 1016.4R
MILWAUKEE LAKESH 0300   45                   N/A
KENOSHA   LAKESH 0300   49     190/ 10/ 13 1017.3
$$

TC  - TEMPERATURE IN CELSIUS
VSB - VISIBILITY IN STATUTE MILES
WCI - WIND CHILL INDEX
HX  - HEAT INDEX